Regional Weather Roundup
Issued by NWS

Home | Current Version | Previous Version | Text Only | Print | Product List | Glossary Off
Versions: 1 2 3 4 5 6 7 8 9 10 11 12 13 14 15 16 17 18 19 20 21 22 23 24 25 26 27 28 29 30 31 32 33 34 35 36 37 38 39 40 41 42 43 44 45 46 47 48 49 50

730
ASUS43 KLOT 262309
RWRIL

ILLINOIS REGIONAL WEATHER ROUNDUP
NATIONAL WEATHER SERVICE CHICAGO/ROMEOVILLE IL
600 PM CDT WED JUL 26 2017

NOTE: "FAIR" INDICATES FEW OR NO CLOUDS BELOW 12,000 FEET WITH NO
SIGNIFICANT WEATHER AND/OR OBSTRUCTIONS TO VISIBILITY.

* THESE STATIONS ARE NOT UNDER NWS QUALITY CONTROL. THEY ALSO MAY NOT
  REPORT WEATHER SUCH AS PRECIPITATION OR FOG.

ILZ001-002-007-009-015-016-024-270000-
NORTHWEST ILLINOIS

CITY           SKY/WX    TMP DP  RH WIND       PRES   REMARKS
MOLINE         CLOUDY    83  77  82 W3        29.92F HX  92
STERLING*      CLOUDY    81  77  88 SE5       29.95F HX  88
SAVANNA*       CLOUDY    82  76  82 SE8       29.94S HX  88
$$

ILZ003-004-008-010-011-017-018-270000-
NORTH CENTRAL ILLINOIS

CITY           SKY/WX    TMP DP  RH WIND       PRES   REMARKS
ROCKFORD       CLOUDY    82  74  76 S8        29.96F HX  88
FREEPORT*      CLOUDY    80  74  82 SE3       29.97F HX  84
ROCHELLE*      CLOUDY    79  75  88 SE5       29.96F HX  83
DE KALB*       CLOUDY    79  75  87 SE8       29.98F HX  82
PERU*          CLOUDY    82  73  76 S5        29.96S HX  87
$$

ILZ005-006-012>014-019>023-270000-
NORTHEAST ILLINOIS

CITY           SKY/WX    TMP DP  RH WIND       PRES   REMARKS
CHICAGO-OHARE  CLOUDY    82  70  66 SW7       29.97F HX  86
CHICAGO-MIDWAY CLOUDY    83  70  64 S10       29.97F HX  87
AURORA         CLOUDY    80  75  84 SE8       29.97F HX  85
LANSING*       CLOUDY    80  70  71 S6        29.99F HX  83
JOLIET*        CLOUDY    82  74  78 SE6       29.97F HX  88
WAUKEGAN       PTSUNNY   77  72  84 E6        29.97F
DUPAGE AIRPORT CLOUDY    80  74  81 S7        29.97F HX  85
KANKAKEE*      CLOUDY    82  72  70 S6        29.99F HX  87
WHEELING       CLOUDY    83  71  67 S7        29.98F HX  87
MORRIS*        CLOUDY    80  75  83 E6        29.95F HX  86
ROMEOVILLE*    CLOUDY    80  70  73 SE5       29.98F HX  83
NORTHERLY ISL    N/A     82  67  60 S9          N/A  HX  84
$$

LMZ740>746-270000-
SOUTHERN LAKE MICHIGAN

STATION/POSITION SKY/WX   TEMP    WIND        PRES    VSBY  WAVE
                          AIR SEA DIR/SP/G                  HT/PER
                          (F)     (DEG/KT/KT) (MB)    (MI)  (FT/S)
SOUTHERN BUOY              73 71  140/ 10/ 10 1015.7          1/ 4
WILMETTE HARBOR            74 72  130/  8/ 10   N/A           1/ 2
HARRISON CRIB              79     180/  7/  8   N/A
BURNHAM HARBOR             81                   N/A
CALUMET HARBOR             82     160/  7/  8 1014.7F
BURNS HARBOR               82     210/ 10/ 11 1016.3
MICHIGAN CITY              80     160/  7/  8   N/A
MICHIGAN CITY 6N           77 76  100/  4/  6   N/A           0
ST. JOSEPH                 77 76  110/  2/  4 1015.4          0
$$

ILZ025>027-034>036-040-047-049-050-058-095>099-270000-
WEST-CENTRAL ILLINOIS

CITY           SKY/WX    TMP DP  RH WIND       PRES   REMARKS
QUINCY         CLOUDY    79  70  74 S6        29.95F HX  82
GALESBURG*     LGT RAIN  82  77  86 S3        29.95F HX  89
MACOMB*        CLOUDY    82  77  86 CALM      29.96S HX  90
JACKSONVILLE*  CLOUDY    85  76  73 CALM      29.94F HX  95
PITTSFIELD*    CLOUDY    86  79  80 CALM      29.96F HX  99
$$

ILZ028>032-037-038-041>044-048-051>054-059>061-270000-
CENTRAL ILLINOIS

CITY           SKY/WX    TMP DP  RH WIND       PRES   REMARKS
PONTIAC        CLOUDY    82  79  90 SE7       29.96F HX  92
BLOOMINGTON    CLOUDY    85  73  67 SW7       29.98F HX  91
DECATUR        MOSUNNY   88  74  63 S5        29.96F HX  96
PEORIA         CLOUDY    85  78  80 S6        29.94F HX  96
LACON*         CLOUDY    82  77  83 SE6       29.93F HX  91
LINCOLN*       CLOUDY    89  79  73 CALM      29.95F HX 104
SPRINGFIELD    CLOUDY    89  77  67 CALM      29.96F HX 101
TAYLORVILLE    CLOUDY    89  76  65 CALM      29.97S HX  99
$$

ILZ033-039-045-046-055>057-062-063-270000-
EAST-CENTRAL ILLINOIS

CITY           SKY/WX    TMP DP  RH WIND       PRES   REMARKS
CHAMPAIGN      CLOUDY    86  77  74 S3        29.97F HX  97
RANTOUL*       PTSUNNY   87  77  72 SE7       29.97F HX  99
MATTOON        PTSUNNY   87  78  74 VRB5      29.96F HX 100
PARIS*         MOSUNNY   85  78  81 SE5       29.99F HX  96
$$

ILZ079-100>102-270000-
SOUTHWEST ILLINOIS

CITY           SKY/WX    TMP DP  RH WIND       PRES   REMARKS
ALTON          PTSUNNY   88  79  74 CALM      29.96F HX 102
BELLEVILLE     CLOUDY    91  75  59 CALM      29.96F HX 101
CAHOKIA*       CLOUDY    86  68  54 S8G24     29.96S THUNDER HX  89
SPARTA*        CLOUDY    82  74  76 SE5       29.99S HX  89
$$

ILZ064>066-069>071-074>076-080>082-084>086-088>090-092>094-270000-
SOUTH-CENTRAL ILLINOIS

CITY           SKY/WX    TMP DP  RH WIND       PRES   REMARKS
CARBONDALE     CLOUDY    83  76  79 E3        29.98F HX  91
CAIRO*         CLOUDY    88  76  66 SW8       29.97F HX  99
EFFINGHAM*     MOSUNNY   88  75  64 S8G16     29.98F HX  98
MT. VERNON     CLOUDY    82  76  81 SE6       29.98F HX  89
CENTRALIA*     CLOUDY    86  74  68 CALM      29.97F HX  94
SALEM*         CLOUDY    87  73  61 SW6       29.97F HX  94
METROPOLIS*    CLOUDY    88  77  70 S3        29.99F HX 100
$$

ILZ067-068-072-073-078-083-087-091-270000-
SOUTHEAST ILLINOIS

CITY           SKY/WX    TMP DP  RH WIND       PRES   REMARKS
LAWRENCEVILLE  PTSUNNY   83  72  69 SW14      29.99R HX  88
FLORA*         PTSUNNY   85  77  75 S5        29.97R HX  96
FAIRFIELD*     CLOUDY    81  77  88 CALM      29.97F HX  88
HARRISBURG*    LGT RAIN  83  76  79 CALM      29.99F HX  92
ROBINSON*      PTSUNNY   87  79  77 S5        29.99S HX 101
CARMI*         CLOUDY    76  74  94 SE5       29.98F
$$

ABBREVIATIONS USED IN REMARKS
   TC - TEMPERATURE IN CELSIUS
  WCI - WIND CHILL INDEX
   HX - HEAT INDEX
  VSB - VISIBILITY
$$





USA.gov is the U.S. government's official web portal to all federal, state and local government web resources and services.